Date String (YYYY-MM-DD hh:mm:ss) UTC,Instrument flags,Ambient pressure (hPa),Sample flow (lpm),Bypass flow (lpm),Sample temperature (°C),Ambient temperature (°C),ASC tube jacket temperature (°C),LED temperature (°C),Box temperature (°C),Sample RH (%),Span deviation,Mass concentration (μg/m³),Mass concentration (μg/m³),Mass concentration (μg/m³)
DateTimeUTC,F1_M11,P_M11,Q1_M11,Q2_M11,T1_M11,T2_M11,T3_M11,T4_M11,T5_M11,U1_M11,ZSPAN_M11,X0_M11,X2_M11,X1_M11
2023-01-16 22:00:00,,0811.9,4.99,0.00,23.5,22.0,00.0,32.4,25.2,15.6,-002.6,0018.85,0012.92,0012.12
2023-01-16 22:01:00,,0811.9,5.00,0.00,23.5,22.0,00.0,32.4,25.2,15.6,-002.6,0018.21,0012.81,0012.01
2023-01-16 22:02:00,,0811.8,4.99,0.00,23.5,21.9,00.0,32.4,25.2,15.6,-002.4,0017.91,0012.65,0011.86
2023-01-16 22:03:00,,0811.9,5.00,0.00,23.5,22.0,00.0,32.4,25.2,15.6,-002.2,0017.67,0012.51,0011.71
2023-01-16 22:04:00,,0811.8,5.00,0.00,23.5,22.0,00.0,32.4,25.2,15.5,-001.8,0017.88,0012.36,0011.56
2023-01-16 22:05:00,,0811.8,5.00,0.00,23.5,22.0,00.0,32.4,25.2,15.4,-001.3,0017.61,0012.20,0011.43
2023-01-16 22:06:00,,0811.8,5.00,0.00,23.5,22.0,00.0,32.4,25.2,15.2,-001.1,0017.61,0012.06,0011.29
2023-01-16 22:07:00,,0811.8,5.00,0.00,23.5,21.9,00.0,32.4,25.2,15.2,-001.3,0018.09,0011.90,0011.14
2023-01-16 22:08:00,,0811.8,5.03,0.00,23.4,21.9,00.0,32.4,25.2,15.3,-001.8,0017.79,0011.71,0010.99
2023-01-16 22:09:00,,0811.9,4.99,0.00,23.5,21.9,00.0,32.3,25.2,15.4,-001.7,0017.53,0011.55,0010.87
2023-01-16 22:10:00,,0812.0,5.00,0.00,23.4,21.9,00.0,32.3,25.2,15.4,-001.9,0017.49,0011.46,0010.79
2023-01-16 22:11:00,,0812.0,4.99,0.00,23.5,22.0,00.0,32.3,25.2,15.5,-002.1,0017.62,0011.40,0010.72
2023-01-16 22:12:00,,0812.0,5.01,0.00,23.5,22.0,00.0,32.3,25.2,15.5,-001.8,0018.23,0011.31,0010.63
2023-01-16 22:13:00,,0812.0,5.01,0.00,23.5,21.9,00.0,32.3,25.2,15.5,-001.6,0018.21,0011.29,0010.59
2023-01-16 22:14:00,,0812.0,5.02,0.00,23.4,21.9,00.0,32.3,25.2,15.5,-001.6,0018.12,0011.24,0010.57
2023-01-16 22:15:00,,0812.0,5.02,0.00,23.4,22.0,00.0,32.3,25.2,15.5,-001.5,0017.29,0011.22,0010.56
2023-01-16 22:16:00,,0812.0,5.01,0.00,23.5,22.1,00.0,32.3,25.3,15.3,-001.5,0017.63,0011.21,0010.54
2023-01-16 22:17:00,,0812.0,4.99,0.00,23.5,22.2,00.0,32.3,25.3,15.1,-001.3,0018.43,0011.23,0010.54
2023-01-16 22:18:00,,0812.0,5.02,0.00,23.5,22.2,00.0,32.3,25.4,15.3,-001.6,0017.94,0011.21,0010.55
2023-01-16 22:19:00,,0812.0,4.99,0.00,23.5,22.3,00.0,32.3,25.4,15.3,-000.6,0018.11,0011.27,0010.59
2023-01-16 22:20:00,,0811.9,4.96,0.00,23.5,22.3,00.0,32.3,25.4,15.3,-000.7,0018.14,0011.30,0010.63
2023-01-16 22:21:00,,0811.8,5.02,0.00,23.5,22.3,00.0,32.3,25.4,15.3,-000.1,0018.39,0011.37,0010.66
2023-01-16 22:22:00,,0811.9,4.98,0.00,23.5,22.3,00.0,32.4,25.4,15.7,0000.4,0019.07,0011.50,0010.73
2023-01-16 22:23:00,,0811.9,5.02,0.00,23.5,22.2,00.0,32.4,25.4,15.5,0000.4,0018.56,0011.65,0010.82
2023-01-16 22:24:00,,0812.0,5.03,0.00,23.5,22.2,00.0,32.4,25.3,15.4,0000.1,0018.61,0011.72,0010.87
2023-01-16 22:25:00,,0812.0,5.00,0.00,23.5,22.1,00.0,32.4,25.3,15.3,-000.4,0018.86,0011.82,0010.94
2023-01-16 22:26:00,,0812.0,4.99,0.00,23.5,22.2,00.0,32.4,25.4,15.1,-001.1,0019.31,0011.88,0010.99
2023-01-16 22:27:00,,0812.1,4.99,0.00,23.6,22.2,00.0,32.4,25.4,15.2,-001.3,0019.06,0011.95,0011.03
2023-01-16 22:28:00,,0812.2,5.00,0.00,23.6,22.3,00.0,32.4,25.4,15.2,-001.5,0018.36,0011.97,0011.08
2023-01-16 22:29:00,,0812.2,5.02,0.00,23.6,22.3,00.0,32.4,25.4,15.1,-001.1,0018.11,0012.01,0011.11
2023-01-16 22:30:00,,0812.1,5.00,0.00,23.6,22.3,00.0,32.4,25.5,15.1,-001.2,0017.99,0012.04,0011.12
2023-01-16 22:31:00,,0812.2,5.00,0.00,23.6,22.4,00.0,32.4,25.5,15.0,-000.9,0018.21,0012.12,0011.15
2023-01-16 22:32:00,,0812.2,5.00,0.00,23.6,22.4,00.0,32.4,25.5,15.2,-001.0,0018.11,0012.16,0011.20
2023-01-16 22:33:00,,0812.3,5.00,0.00,23.6,22.4,00.0,32.4,25.5,15.4,-001.4,0017.61,0012.16,0011.23
2023-01-16 22:34:00,,0812.3,4.97,0.00,23.6,22.3,00.0,32.4,25.5,15.4,-001.7,0017.60,0012.13,0011.23
2023-01-16 22:35:00,,0812.3,5.00,0.00,23.6,22.3,00.0,32.4,25.5,15.4,-001.9,0017.81,0012.13,0011.27
2023-01-16 22:36:00,,0812.3,5.00,0.00,23.6,22.3,00.0,32.4,25.5,15.4,-001.9,0018.05,0012.15,0011.30
2023-01-16 22:37:00,,0812.3,5.00,0.00,23.6,22.3,00.0,32.4,25.5,15.8,-001.9,0018.14,0012.21,0011.37
2023-01-16 22:38:00,,0812.3,4.99,0.00,23.6,22.2,00.0,32.4,25.4,16.2,-001.7,0019.50,0012.38,0011.53
2023-01-16 22:39:00,,0812.3,5.01,0.00,23.6,22.2,00.0,32.4,25.4,16.2,-001.8,0020.04,0012.56,0011.69
2023-01-16 22:40:00,,0812.3,4.99,0.00,23.6,22.2,00.0,32.4,25.4,16.4,-002.2,0020.64,0012.75,0011.86
2023-01-16 22:41:00,,0812.4,4.97,0.00,23.6,22.2,00.0,32.4,25.4,16.4,-002.3,0021.01,0012.95,0012.04
2023-01-16 22:42:00,,0812.4,4.98,0.00,23.6,22.2,00.0,32.4,25.4,16.3,-002.5,0021.64,0013.14,0012.19
2023-01-16 22:43:00,,0812.4,5.02,0.00,23.6,22.1,00.0,32.5,25.4,16.2,-002.4,0022.57,0013.28,0012.32
2023-01-16 22:44:00,,0812.4,5.00,0.00,23.6,22.1,00.0,32.5,25.3,16.2,-001.9,0023.28,0013.38,0012.43
2023-01-16 22:45:00,,0812.4,4.98,0.00,23.6,22.0,00.0,32.5,25.3,16.3,-002.0,0023.66,0013.54,0012.57
2023-01-16 22:46:00,,0812.4,5.01,0.00,23.6,21.9,00.0,32.4,25.3,16.2,-002.2,0023.63,0013.67,0012.67
2023-01-16 22:47:00,,0812.4,4.99,0.00,23.5,21.9,00.0,32.4,25.2,15.8,-002.1,0023.48,0013.73,0012.72
2023-01-16 22:48:00,,0812.4,4.99,0.00,23.5,21.9,00.0,32.4,25.3,15.6,-002.1,0023.19,0013.75,0012.73
2023-01-16 22:49:00,,0812.4,5.01,0.00,23.5,22.0,00.0,32.4,25.2,15.7,-002.0,0022.15,0013.73,0012.66
2023-01-16 22:50:00,,0812.4,5.00,0.00,23.5,22.0,00.0,32.4,25.3,15.7,-001.8,0022.10,0013.65,0012.59
2023-01-16 22:51:00,,0812.4,5.01,0.00,23.5,22.1,00.0,32.4,25.3,15.4,-001.9,0022.21,0013.55,0012.51
2023-01-16 22:52:00,,0812.4,5.01,0.00,23.5,22.1,00.0,32.4,25.3,15.3,-001.7,0022.45,0013.46,0012.42
2023-01-16 22:53:00,,0812.4,4.99,0.00,23.5,22.2,00.0,32.4,25.4,15.1,-001.7,0021.90,0013.37,0012.37
2023-01-16 22:54:00,,0812.5,5.00,0.00,23.6,22.3,00.0,32.4,25.4,15.1,-001.9,0021.21,0013.32,0012.32
2023-01-16 22:55:00,,0812.5,4.99,0.00,23.6,22.3,00.0,32.4,25.4,15.2,-002.4,0020.43,0013.25,0012.24
2023-01-16 22:56:00,,0812.5,5.01,0.00,23.6,22.3,00.0,32.4,25.4,15.2,-002.0,0020.08,0013.18,0012.17
2023-01-16 22:57:00,,0812.5,5.01,0.00,23.6,22.3,00.0,32.4,25.4,15.2,-001.7,0020.42,0013.13,0012.11
2023-01-16 22:58:00,,0812.6,4.98,0.00,23.6,22.3,00.0,32.4,25.4,15.2,-001.8,0021.04,0013.13,0012.10
2023-01-16 22:59:00,,0812.6,5.00,0.00,23.6,22.3,00.0,32.4,25.4,15.3,-002.0,0021.07,0013.17,0012.09
